1512806400.64,3929,4.81,71884.0,-11.39,-13.11,-13.11,0,*5B
1512806401.85,3930,4.81,71882.8,-11.39,-13.11,-13.11,0,*53
1512806403.08,3931,4.81,71882.8,-11.37,-13.07,-13.15,0,*5F
1512806404.34,3932,4.81,71882.3,-11.37,-13.07,-13.01,0,*59
1512806405.6,3933,4.81,71880.0,-11.37,-13.07,-13.01,0,*58
1512806406.83,3934,4.81,71886.3,-11.37,-13.07,-13.07,0,*59
1512806408.07,3935,4.81,71882.0,-11.37,-13.07,-13.07,0,*58
1512806409.33,3936,4.81,71882.8,-11.37,-13.07,-13.01,0,*5D
1512806410.56,3937,4.81,71882.3,-11.39,-13.07,-13.01,0,*52
1512806411.79,3938,4.81,71880.5,-11.35,-13.07,-13.01,0,*51
1512806413.0,3939,4.81,71882.8,-11.35,-13.07,-13.07,0,*56
1512806414.23,3940,4.81,71884.0,-11.37,-13.07,-13.07,0,*5A
1512806415.46,3941,4.81,71882.5,-11.35,-13.07,-13.01,0,*5F
1512806416.69,3942,4.81,71882.5,-11.35,-13.07,-13.01,0,*5C
1512806417.92,3943,4.81,71882.3,-11.35,-13.15,-13.01,0,*5E
1512806419.15,3944,4.81,71882.0,-11.35,-13.07,-13.01,0,*5A
1512806420.41,3945,4.81,71882.3,-11.33,-13.01,-12.97,0,*55
1512806421.65,3946,4.81,71882.5,-11.35,-13.07,-13.01,0,*58
1512806422.9,3947,4.81,71878.0,-11.35,-13.01,-13.01,0,*5F
1512806424.13,3948,4.81,71884.5,-11.35,-13.07,-13.01,0,*56
1512806425.4,3949,4.81,71880.8,-11.33,-13.01,-12.97,0,*59
1512806426.66,3950,4.81,71880.0,-11.33,-13.01,-12.97,0,*51
1512806427.93,3951,4.81,71882.0,-11.33,-13.01,-12.89,0,*5F
1512806429.15,3952,4.81,71880.3,-11.35,-13.07,-13.01,0,*5D
1512806430.42,3953,4.81,71876.5,-11.33,-13.01,-12.89,0,*5D
1512806431.62,3954,4.81,71880.0,-11.35,-13.15,-13.07,0,*5E
1512806432.88,3955,4.81,71880.0,-11.33,-13.01,-12.97,0,*54
1512806434.17,3956,4.81,71878.5,-11.33,-13.01,-13.01,0,*59
1512806435.45,3957,4.81,71880.3,-11.33,-13.01,-13.01,0,*58
1512806436.66,3958,4.81,71876.0,-11.35,-13.07,-13.07,0,*51
1512806437.86,3959,4.81,71882.0,-11.35,-13.07,-13.07,0,*50
1512806439.07,3960,4.81,71874.5,-11.35,-13.07,-13.07,0,*5A
1512806440.3,3961,4.81,71878.0,-11.33,-13.11,-13.11,0,*5D
1512806441.51,3962,4.81,71882.8,-11.35,-13.07,-13.07,0,*58
1512806442.72,3963,4.81,71882.3,-11.35,-13.07,-13.15,0,*5A
1512806443.93,3964,4.81,71880.0,-11.35,-13.07,-13.07,0,*5E
1512806445.18,3965,4.81,71880.5,-11.33,-13.11,-13.01,0,*58
1512806446.44,3966,4.81,71880.5,-11.33,-13.01,-13.11,0,*5B
1512806447.67,3967,4.81,71880.5,-11.35,-13.07,-13.01,0,*5B
1512806448.93,3968,4.81,71880.0,-11.33,-13.01,-12.97,0,*5A
1512806450.22,3969,4.81,71882.0,-11.33,-13.01,-13.01,0,*55
1512806451.45,3970,4.81,71880.3,-11.33,-13.11,-13.11,0,*5D
1512806452.68,3971,4.81,71878.5,-11.33,-13.11,-13.11,0,*5C
1512806453.96,3972,4.81,71882.0,-11.33,-13.01,-13.01,0,*5F
1512806455.2,3973,4.81,71878.3,-11.33,-13.11,-13.11,0,*5E
1512806456.4,3974,4.81,71880.5,-11.35,-13.15,-13.15,0,*5F
1512806457.68,3975,4.81,71878.5,-11.33,-13.01,-13.01,0,*58
1512806458.94,3976,4.81,71882.0,-11.33,-12.97,-13.01,0,*55
1512806460.17,3977,4.81,71880.8,-11.35,-13.01,-13.07,0,*5A
1512806461.41,3978,4.81,71876.3,-11.33,-12.89,-12.97,0,*5A
1512806462.65,3979,4.81,71878.5,-11.33,-12.97,-12.97,0,*54
1512806463.9,3980,4.81,71882.3,-11.33,-12.93,-13.01,0,*58
1512806465.12,3981,4.81,71880.5,-11.31,-12.97,-12.97,0,*51
1512806466.35,3982,4.81,71876.8,-11.31,-12.97,-13.01,0,*5C
1512806467.59,3983,4.81,71878.0,-11.31,-12.97,-13.01,0,*5D
1512806468.8,3984,4.81,71882.0,-11.31,-12.97,-12.89,0,*5B
1512806470.02,3985,4.81,71876.5,-11.31,-12.97,-12.89,0,*5A
1512806471.23,3986,4.81,71876.8,-11.31,-12.89,-12.97,0,*59
1512806472.47,3987,4.81,71876.0,-11.27,-12.83,-12.93,0,*51
1512806473.68,3988,4.81,71878.8,-11.31,-12.97,-12.97,0,*58
1512806474.9,3989,4.81,71876.8,-11.31,-12.97,-12.97,0,*59
1512806476.11,3990,4.81,71878.3,-11.27,-12.93,-12.93,0,*56
1512806477.33,3991,4.81,71882.5,-11.31,-12.89,-12.89,0,*50
1512806478.54,3992,4.81,71878.3,-11.31,-12.97,-12.97,0,*53
1512806479.76,3993,4.81,71876.0,-11.27,-12.93,-12.93,0,*55
1512806480.98,3994,4.81,71878.0,-11.27,-12.93,-12.93,0,*52
1512806482.19,3995,4.81,71876.8,-11.31,-12.97,-12.97,0,*54
1512806483.43,3996,4.81,71872.3,-11.27,-12.83,-12.93,0,*51
1512806484.64,3997,4.81,71874.3,-11.31,-12.97,-12.89,0,*59
1512806485.86,3998,4.81,71876.8,-11.31,-12.97,-12.97,0,*59
1512806487.07,3999,4.81,71874.3,-11.31,-12.97,-12.97,0,*58
1512806488.29,4000,4.81,71874.5,-11.31,-12.97,-12.97,0,*56
1512806489.5,4001,4.81,71874.3,-11.31,-12.97,-12.97,0,*57
1512806490.72,4002,4.81,71876.5,-11.31,-12.97,-12.97,0,*54
1512806491.93,4003,4.81,71878.5,-11.31,-12.97,-12.97,0,*55
1512806493.15,4004,4.81,71878.0,-11.31,-12.97,-12.97,0,*52
1512806494.36,4005,4.81,71872.0,-11.27,-12.97,-12.93,0,*50
1512806495.58,4006,4.81,71876.0,-11.27,-12.93,-12.93,0,*57
1512806496.82,4007,4.81,71874.5,-11.27,-12.93,-12.83,0,*57
1512806498.06,4008,4.81,71874.8,-11.27,-12.83,-12.93,0,*58
1512806499.27,4009,4.81,71876.8,-11.31,-12.89,-12.89,0,*5F
1512806500.49,4010,4.81,71872.0,-11.31,-12.97,-12.89,0,*58
1512806501.72,4011,4.81,71874.5,-11.27,-12.83,-12.93,0,*50
1512806502.94,4012,4.81,71872.5,-11.31,-12.93,-12.93,0,*55
1512806504.15,4013,4.81,71874.0,-11.31,-12.97,-12.89,0,*5B
1512806505.37,4014,4.81,71872.5,-11.31,-12.97,-12.97,0,*53
1512806506.59,4015,4.81,71870.8,-11.27,-12.97,-12.89,0,*5A
1512806507.85,4016,4.81,71872.8,-11.27,-12.83,-12.83,0,*56
1512806509.11,4017,4.81,71872.0,-11.27,-12.83,-12.79,0,*52
1512806510.37,4018,4.81,71868.8,-11.27,-12.83,-12.83,0,*58
1512806511.61,4019,4.81,71874.8,-11.27,-12.93,-12.83,0,*58
1512806512.83,4020,4.81,71870.8,-11.27,-12.93,-12.97,0,*57
1512806514.07,4021,4.81,71868.8,-11.27,-12.93,-12.83,0,*53
1512806515.33,4022,4.81,71870.3,-11.27,-12.83,-12.83,0,*51
1512806516.59,4023,4.81,71870.0,-11.27,-12.83,-12.83,0,*50
1512806517.83,4024,4.81,71868.0,-11.27,-12.93,-12.83,0,*56
1512806519.09,4025,4.81,71870.8,-11.27,-12.83,-12.83,0,*56
1512806520.31,4026,4.81,71874.0,-11.27,-12.93,-12.93,0,*55
1512806521.53,4027,4.81,71868.5,-11.27,-12.97,-12.93,0,*50
1512806522.74,4028,4.81,71872.0,-11.27,-12.97,-12.97,0,*5B
1512806523.96,4029,4.81,71872.0,-11.27,-12.97,-12.93,0,*5E
1512806525.18,4030,4.81,71870.3,-11.27,-12.97,-12.93,0,*56
1512806526.4,4031,4.81,71872.3,-11.27,-12.93,-12.93,0,*53
1512806527.61,4032,4.81,71870.8,-11.27,-12.93,-12.93,0,*50
1512806528.85,4033,4.81,71868.0,-11.27,-12.93,-12.83,0,*50
1512806530.12,4034,4.81,71874.3,-11.27,-12.83,-12.79,0,*53
1512806531.38,4035,4.81,71870.3,-11.27,-12.83,-12.83,0,*57
1512806532.62,4036,4.81,71868.8,-11.27,-12.93,-12.83,0,*55
1512806533.86,4037,4.81,71868.3,-11.27,-12.93,-12.83,0,*54
1512806535.12,4038,4.81,71870.8,-11.27,-12.83,-12.83,0,*5A
1512806536.34,4039,4.81,71870.8,-11.27,-12.93,-12.93,0,*5B
1512806537.58,4040,4.81,71868.8,-11.27,-12.93,-12.83,0,*54
1512806538.84,4041,4.81,71868.8,-11.27,-12.83,-12.79,0,*51
1512806540.09,4042,4.81,71868.5,-11.27,-12.93,-12.79,0,*53
1512806541.33,4043,4.81,71868.5,-11.27,-12.93,-12.79,0,*52
1512806542.59,4044,4.81,71868.3,-11.25,-12.93,-12.83,0,*52
1512806543.81,4045,4.81,71868.3,-11.23,-12.97,-12.93,0,*50
1512806545.09,4046,4.81,71870.3,-11.25,-12.83,-12.79,0,*54
1512806546.38,4047,4.81,71866.8,-11.25,-12.79,-12.71,0,*58
1512806547.64,4048,4.81,71866.0,-11.25,-12.83,-12.89,0,*55
1512806548.88,4049,4.81,71864.8,-11.25,-12.93,-12.93,0,*5E
1512806550.14,4050,4.81,71864.8,-11.25,-12.93,-12.83,0,*57
1512806551.4,4051,4.81,71864.0,-11.23,-12.79,-12.79,0,*51
1512806552.64,4052,4.81,71866.0,-11.23,-12.93,-12.83,0,*53
1512806553.92,4053,4.81,71866.0,-11.25,-12.83,-12.83,0,*55
1512806555.16,4054,4.81,71866.3,-11.23,-12.89,-12.79,0,*5B
1512806556.38,4055,4.81,71864.5,-11.23,-12.93,-12.89,0,*5E
1512806557.62,4056,4.81,71870.3,-11.25,-12.97,-12.93,0,*54
1512806558.85,4057,4.81,71866.8,-11.25,-13.07,-12.97,0,*59
1512806560.09,4058,4.81,71864.5,-11.25,-13.07,-12.93,0,*52
1512806561.32,4059,4.81,71866.3,-11.25,-13.07,-13.07,0,*5F
1512806562.53,4060,4.81,71866.3,-11.23,-12.93,-12.93,0,*53
1512806563.77,4061,4.81,71864.3,-11.25,-13.07,-12.97,0,*5C
1512806565.01,4062,4.81,71864.0,-11.23,-13.01,-12.93,0,*5B
1512806566.24,4063,4.81,71856.5,-11.25,-13.11,-12.97,0,*59
1512806567.48,4064,4.81,71854.3,-11.25,-13.11,-12.97,0,*5E
1512806568.7,4065,4.81,71852.0,-11.25,-13.15,-13.07,0,*53
1512806569.96,4066,4.81,71858.5,-11.25,-13.29,-13.15,0,*5C
1512806571.19,4067,4.81,71860.3,-11.25,-13.23,-13.15,0,*57
1512806572.43,4068,4.81,71858.3,-11.27,-13.29,-13.15,0,*50
1512806573.67,4069,4.81,71858.3,-11.27,-13.29,-13.11,0,*55
1512806574.88,4070,4.81,71856.8,-11.27,-13.23,-13.15,0,*53
1512806576.09,4071,4.81,71860.0,-11.27,-13.15,-13.07,0,*54
1512806577.3,4072,4.81,71858.3,-11.27,-12.97,-12.97,0,*54
1512806578.56,4073,4.81,71860.8,-11.31,-13.01,-13.01,0,*52
1512806579.8,4074,4.81,71860.0,-11.27,-12.97,-12.83,0,*57
1512806581.02,4075,4.81,71860.3,-11.27,-12.97,-12.93,0,*57
1512806582.25,4076,4.81,71860.8,-11.31,-13.15,-13.01,0,*52
1512806583.46,4077,4.81,71866.8,-11.27,-13.11,-12.97,0,*5E
1512806584.7,4078,4.81,71864.8,-11.25,-12.97,-12.97,0,*5C
1512806585.92,4079,4.81,71864.5,-11.27,-12.97,-12.89,0,*50
1512806587.16,4080,4.81,71866.8,-11.27,-12.97,-12.79,0,*59
1512806588.38,4081,4.81,71864.3,-11.27,-12.93,-12.93,0,*58
1512806589.59,4082,4.81,71862.8,-11.27,-13.07,-12.93,0,*57
1512806590.83,4083,4.81,71860.5,-11.25,-12.97,-12.93,0,*5C
1512806592.08,4084,4.81,71858.0,-11.27,-12.97,-12.79,0,*5D
1512806593.29,4085,4.81,71860.0,-11.27,-13.07,-12.93,0,*50
1512806594.52,4086,4.81,71862.8,-11.25,-13.11,-13.07,0,*5A
1512806595.78,4087,4.81,71862.3,-11.25,-13.29,-13.23,0,*56
1512806597.02,4088,4.81,71860.3,-11.25,-13.23,-13.11,0,*52
1512806598.25,4089,4.81,71862.8,-11.25,-13.07,-12.97,0,*5A
1512806599.49,4090,4.81,71862.3,-11.25,-12.97,-12.97,0,*5A
1512806600.73,4091,4.81,71862.0,-11.25,-12.97,-12.93,0,*5F
1512806601.99,4092,4.81,71864.8,-11.25,-12.97,-12.83,0,*5D
1512806603.23,4093,4.81,71860.8,-11.25,-12.97,-12.93,0,*5D
1512806604.46,4094,4.81,71860.3,-11.25,-13.07,-12.97,0,*56
1512806605.7,4095,4.81,71864.0,-11.25,-12.97,-12.97,0,*5F
1512806606.92,4096,4.81,71864.3,-11.23,-12.93,-12.93,0,*5A
1512806608.16,4097,4.81,71864.0,-11.23,-13.01,-12.93,0,*51
1512806609.37,4098,4.81,71862.3,-11.27,-13.11,-12.97,0,*5F
1512806610.59,4099,4.81,71862.8,-11.27,-12.93,-12.93,0,*51
1512806611.83,4100,4.81,71860.3,-11.25,-12.93,-12.93,0,*52
1512806613.06,4101,4.81,71862.3,-11.25,-12.97,-12.93,0,*57
1512806614.3,4102,4.81,71860.5,-11.25,-12.97,-12.93,0,*54
1512806615.54,4103,4.81,71860.8,-11.25,-12.97,-12.89,0,*5E
1512806616.8,4104,4.81,71858.8,-11.25,-12.97,-12.83,0,*53
1512806618.07,4105,4.81,71860.0,-11.23,-12.79,-12.79,0,*51
1512806619.3,4106,4.81,71862.5,-11.25,-13.07,-12.93,0,*58
1512806620.54,4107,4.81,71864.8,-11.25,-12.97,-12.93,0,*51
1512806621.8,4108,4.81,71866.3,-11.25,-12.93,-12.83,0,*5B
1512806623.04,4109,4.81,71862.5,-11.25,-12.93,-12.93,0,*5B
1512806624.3,4110,4.81,71864.8,-11.25,-12.93,-12.83,0,*52
1512806625.51,4111,4.81,71860.3,-11.23,-12.89,-12.89,0,*54
1512806626.73,4112,4.81,71860.0,-11.23,-12.89,-12.89,0,*57
1512806627.94,4113,4.81,71860.5,-11.23,-12.93,-12.89,0,*5D
1512806629.16,4114,4.81,71862.3,-11.23,-12.93,-12.89,0,*5A
1512806630.4,4115,4.81,71866.8,-11.23,-12.93,-12.79,0,*54
1512806631.64,4116,4.81,71862.5,-11.23,-12.89,-12.79,0,*5C
1512806632.87,4117,4.81,71864.3,-11.23,-12.79,-12.89,0,*5D
1512806634.11,4118,4.81,71864.8,-11.23,-12.89,-12.79,0,*52
1512806635.38,4119,4.81,71870.3,-11.23,-12.79,-12.79,0,*5C
1512806636.62,4120,4.81,71870.3,-11.23,-12.89,-12.79,0,*59
1512806637.83,4121,4.81,71870.8,-11.23,-12.89,-12.89,0,*57
1512806639.07,4122,4.81,71872.0,-11.23,-12.89,-12.79,0,*5B
1512806640.33,4123,4.81,71872.5,-11.23,-12.79,-12.79,0,*55
1512806641.57,4124,4.81,71870.8,-11.23,-13.01,-12.89,0,*53
1512806642.81,4125,4.81,71870.3,-11.21,-12.93,-12.89,0,*5A
1512806644.05,4126,4.81,71868.8,-11.21,-12.89,-12.89,0,*52
1512806645.28,4127,4.81,71870.0,-11.21,-12.93,-12.89,0,*58
1512806646.55,4128,4.81,71872.8,-11.21,-12.93,-12.79,0,*58
1512806647.79,4129,4.81,71872.3,-11.19,-12.89,-12.79,0,*59
1512806649.02,4130,4.81,71868.5,-11.21,-12.89,-12.89,0,*55
1512806650.26,4131,4.81,71872.5,-11.21,-12.93,-12.89,0,*5F
1512806651.5,4132,4.81,71872.0,-11.21,-12.93,-12.89,0,*5C
1512806652.74,4133,4.81,71868.0,-11.21,-12.93,-12.89,0,*5D
1512806653.95,4134,4.81,71870.3,-11.19,-12.93,-12.89,0,*51
1512806655.17,4135,4.81,71870.8,-11.19,-12.93,-12.89,0,*50
1512806656.41,4136,4.81,71874.8,-11.19,-12.93,-12.79,0,*5C
1512806657.65,4137,4.81,71874.8,-11.21,-12.93,-12.89,0,*59
1512806658.89,4138,4.81,71872.5,-11.21,-12.93,-12.89,0,*56
1512806660.12,4139,4.81,71874.0,-11.21,-12.93,-12.89,0,*57
1512806661.34,4140,4.81,71874.8,-11.19,-12.93,-12.89,0,*52
1512806662.58,4141,4.81,71872.0,-11.19,-12.93,-12.79,0,*5C
1512806663.79,4142,4.81,71874.8,-11.19,-12.93,-12.89,0,*50
1512806665.01,4143,4.81,71872.8,-11.19,-12.93,-12.89,0,*51
1512806666.22,4144,4.81,71872.0,-11.19,-12.93,-12.89,0,*56
1512806667.46,4145,4.81,71876.3,-11.19,-13.01,-12.93,0,*56
1512806668.72,4146,4.81,71870.8,-11.15,-12.83,-12.83,0,*53
1512806669.95,4147,4.81,71872.8,-11.17,-12.89,-12.89,0,*50
1512806671.19,4148,4.81,71870.5,-11.17,-12.89,-12.89,0,*5F
1512806672.42,4149,4.81,71870.8,-11.17,-12.89,-12.89,0,*5E
1512806673.66,4150,4.81,71872.5,-11.17,-12.97,-12.89,0,*59
1512806674.87,4151,4.81,71870.3,-11.19,-12.93,-12.93,0,*59
1512806676.11,4152,4.81,71872.3,-11.17,-12.89,-12.89,0,*54
1512806677.35,4153,4.81,71874.5,-11.17,-12.89,-12.89,0,*55
1512806678.58,4154,4.81,71874.8,-11.17,-12.97,-12.89,0,*5D
1512806679.82,4155,4.81,71874.3,-11.17,-12.89,-12.89,0,*53
1512806681.03,4156,4.88,71876.8,-11.19,-12.93,-12.89,0,*55
1512806682.27,4157,4.81,71872.8,-11.19,-13.01,-12.93,0,*55
1512806683.51,4158,4.81,71874.0,-11.17,-12.89,-12.89,0,*5E
1512806684.72,4159,4.81,71874.8,-11.19,-12.93,-12.89,0,*5A
1512806685.96,4160,4.88,71878.0,-11.19,-13.01,-12.89,0,*5A
1512806687.22,4161,4.88,71880.3,-11.17,-13.01,-12.89,0,*55
1512806688.43,4162,4.81,71876.0,-11.19,-12.89,-12.89,0,*59
1512806689.67,4163,4.81,71870.3,-11.17,-12.89,-12.89,0,*56
1512806690.91,4164,4.88,71878.3,-11.19,-13.01,-12.93,0,*55
1512806692.17,4165,4.81,71872.8,-11.17,-12.89,-12.83,0,*5A
1512806693.43,4166,4.81,71876.3,-11.17,-12.89,-12.83,0,*59
1512806694.66,4167,4.81,71876.3,-11.17,-12.97,-12.89,0,*5D
1512806695.9,4168,4.88,71876.8,-11.17,-12.97,-12.97,0,*5D
1512806697.14,4169,4.81,71878.3,-11.17,-12.97,-12.89,0,*53
1512806698.38,4170,4.81,71874.5,-11.17,-12.97,-12.89,0,*5B
1512806699.61,4171,4.81,71872.3,-11.17,-12.97,-12.89,0,*5A
1512806700.85,4172,4.81,71876.0,-11.17,-12.97,-12.89,0,*59
1512806702.09,4173,4.81,71876.5,-11.17,-12.89,-12.89,0,*57
1512806703.32,4174,4.81,71878.3,-11.17,-12.89,-12.97,0,*5F
1512806704.56,4175,4.88,71880.5,-11.17,-12.89,-12.89,0,*51
1512806705.79,4176,4.81,71876.0,-11.17,-12.89,-12.89,0,*52
1512806707.03,4177,4.81,71874.3,-11.15,-12.93,-12.83,0,*50
1512806708.26,4178,4.81,71872.8,-11.15,-12.93,-12.83,0,*5F
1512806709.5,4179,4.81,71876.3,-11.17,-12.89,-12.89,0,*5D
1512806710.73,4180,4.81,71878.3,-11.17,-12.89,-12.89,0,*5B
1512806711.97,4181,4.81,71878.8,-11.17,-12.97,-12.89,0,*55
1512806713.2,4182,4.81,71876.3,-11.15,-12.83,-12.93,0,*5A
1512806714.44,4183,4.81,71874.3,-11.17,-12.97,-12.89,0,*57
1512806715.67,4184,4.81,71878.0,-11.15,-12.93,-12.83,0,*5C
1512806716.89,4185,4.81,71876.8,-11.15,-12.93,-12.93,0,*5C
1512806718.1,4186,4.88,71878.5,-11.15,-12.97,-12.97,0,*5F
1512806719.33,4187,4.81,71878.5,-11.15,-13.01,-12.97,0,*50
1512806720.57,4188,4.81,71874.0,-11.17,-12.97,-12.89,0,*5C
1512806721.8,4189,4.81,71876.8,-11.15,-12.97,-12.83,0,*55
1512806723.04,4190,4.81,71876.0,-11.15,-12.93,-12.83,0,*59
1512806724.29,4191,4.81,71874.8,-11.15,-12.83,-12.83,0,*59
1512806725.5,4192,4.81,71878.8,-11.15,-12.93,-12.93,0,*5A
1512806726.72,4193,4.81,71878.8,-11.15,-12.93,-12.93,0,*5B
1512806727.97,4194,4.88,71876.8,-11.15,-12.83,-12.83,0,*5C
1512806729.25,4195,4.88,71878.5,-11.13,-12.83,-12.79,0,*5E
1512806730.47,4196,4.81,71878.3,-11.15,-12.93,-12.93,0,*5E
1512806731.75,4197,4.81,71878.8,-11.13,-13.01,-13.01,0,*59
1512806732.99,4198,4.81,71878.0,-11.13,-12.93,-12.93,0,*56
1512806734.27,4199,4.81,71874.8,-11.13,-12.83,-12.83,0,*57
1512806735.55,4200,4.81,71874.8,-11.13,-12.71,-12.79,0,*5C
1512806736.79,4201,4.81,71874.8,-11.11,-12.89,-12.79,0,*58
1512806738.03,4202,4.81,71874.3,-11.13,-12.93,-12.97,0,*52
1512806739.26,4203,4.81,71876.8,-11.13,-12.93,-12.93,0,*57
1512806740.5,4204,4.81,71878.0,-11.13,-12.93,-12.93,0,*50
1512806741.76,4205,4.81,71874.8,-11.13,-12.93,-13.01,0,*5B
1512806743.04,4206,4.81,71878.8,-11.13,-12.83,-12.83,0,*52
1512806744.32,4207,4.81,71878.3,-11.13,-12.83,-12.83,0,*53
1512806745.58,4208,4.81,71878.3,-11.11,-12.79,-12.79,0,*5E
1512806746.82,4209,4.81,71878.0,-11.15,-12.93,-12.79,0,*5F
1512806748.1,4210,4.81,71882.5,-11.13,-12.83,-12.83,0,*55
1512806749.38,4211,4.88,71884.0,-11.13,-13.01,-12.83,0,*5F
1512806750.59,4212,4.81,71878.3,-11.11,-12.97,-12.89,0,*5A
1512806751.85,4213,4.81,71880.3,-11.13,-12.97,-13.01,0,*58
1512806753.09,4214,4.88,71880.3,-11.13,-12.97,-12.97,0,*51
1512806754.37,4215,4.81,71880.0,-11.13,-13.01,-12.83,0,*5B
1512806755.63,4216,4.88,71882.3,-11.13,-12.93,-12.83,0,*52
1512806756.91,4217,4.81,71878.8,-11.13,-12.83,-12.83,0,*52
1512806758.2,4218,4.88,71880.3,-11.13,-12.83,-12.79,0,*58
1512806759.48,4219,4.88,71878.8,-11.13,-12.83,-12.79,0,*59
1512806760.76,4220,4.81,71876.0,-11.13,-12.83,-12.79,0,*53
1512806762.02,4221,4.88,71878.8,-11.13,-12.93,-12.83,0,*56
1512806763.29,4222,4.81,71876.8,-11.13,-12.93,-12.83,0,*55
1512806764.52,4223,4.81,71876.8,-11.11,-12.89,-12.79,0,*58
1512806765.73,4224,4.81,71878.0,-11.11,-12.89,-12.89,0,*50
1512806767.01,4225,4.81,71874.3,-11.13,-12.83,-12.83,0,*53
1512806768.24,4226,4.81,71876.3,-11.11,-12.89,-12.79,0,*5D
1512806769.45,4227,4.88,71878.3,-11.11,-12.93,-12.93,0,*53
1512806770.66,4228,4.81,71878.5,-11.11,-12.97,-12.89,0,*53
1512806771.93,4229,4.88,71876.3,-11.13,-13.01,-12.97,0,*51
1512806773.14,4230,4.88,71878.3,-11.11,-12.93,-12.97,0,*51
1512806774.37,4231,4.81,71878.3,-11.13,-13.11,-13.11,0,*56
1512806775.58,4232,4.81,71874.8,-11.11,-12.93,-12.89,0,*5C
1512806776.84,4233,4.81,71878.8,-11.13,-12.97,-12.83,0,*51
1512806778.08,4234,4.81,71874.5,-11.13,-12.97,-12.93,0,*57
1512806779.36,4235,4.88,71882.5,-11.13,-13.01,-12.83,0,*59
1512806780.58,4236,4.81,71876.0,-11.15,-12.97,-12.93,0,*53
1512806781.83,4237,4.81,71874.5,-11.13,-13.11,-12.83,0,*5A
1512806783.04,4238,4.88,71880.5,-11.11,-12.97,-12.89,0,*52
1512806784.28,4239,4.81,71878.0,-11.11,-12.89,-12.75,0,*5F
1512806785.52,4240,4.81,71874.8,-11.11,-12.93,-12.79,0,*56
1512806786.78,4241,4.81,71876.8,-11.13,-12.93,-12.83,0,*50
1512806788.04,4242,4.81,71878.8,-11.13,-12.93,-12.83,0,*53
1512806789.3,4243,4.81,71878.3,-11.13,-12.93,-12.83,0,*52
1512806790.54,4244,4.88,71878.5,-11.13,-12.93,-12.97,0,*50
1512806791.82,4245,4.81,71876.3,-11.13,-12.83,-12.83,0,*55
1512806793.05,4246,4.81,71876.8,-11.11,-12.89,-12.75,0,*57
1512806794.26,4247,4.81,71878.0,-11.11,-12.97,-12.89,0,*5A
1512806795.53,4248,4.88,71882.3,-11.13,-13.01,-12.97,0,*56
1512806796.76,4249,4.88,71876.8,-11.13,-13.07,-12.93,0,*55
1512806798.02,4250,4.81,71876.0,-11.13,-12.93,-12.83,0,*50
1512806799.3,4251,4.81,71878.3,-11.13,-13.01,-13.01,0,*50
1512806800.56,4252,4.81,71874.8,-11.13,-12.97,-12.83,0,*56
1512806801.77,4253,4.81,71872.0,-11.11,-12.93,-12.89,0,*5B
1512806803.06,4254,4.81,71874.5,-11.13,-13.01,-12.83,0,*5E
1512806804.32,4255,4.88,71878.8,-11.13,-12.97,-12.83,0,*51
1512806805.55,4256,4.88,71878.8,-11.13,-12.97,-12.93,0,*53
1512806806.79,4257,4.81,71878.8,-11.11,-12.93,-12.79,0,*50
1512806808.03,4258,4.88,71878.8,-11.13,-12.97,-12.93,0,*5D
1512806809.28,4259,4.81,71872.0,-11.13,-13.15,-13.01,0,*5D
1512806810.49,4260,4.81,71876.0,-11.11,-13.11,-12.93,0,*5B
1512806811.72,4261,4.81,71876.8,-11.11,-13.07,-12.79,0,*59
1512806812.96,4262,4.81,71876.0,-11.11,-12.93,-12.79,0,*56
1512806814.2,4263,4.81,71878.5,-11.11,-12.93,-12.79,0,*57
1512806815.41,4264,4.81,71876.3,-11.11,-12.97,-12.89,0,*5B
1512806816.62,4265,4.88,71878.8,-11.11,-12.93,-12.89,0,*5E
1512806817.83,4266,4.81,71876.3,-11.11,-12.97,-12.93,0,*52
1512806819.04,4267,4.81,71876.5,-11.11,-12.97,-12.93,0,*53
1512806820.3,4268,4.81,71876.3,-11.13,-13.01,-12.97,0,*54
1512806821.51,4269,4.81,71874.0,-11.11,-12.97,-12.93,0,*5D
1512806822.72,4270,4.88,71876.8,-11.11,-12.97,-12.93,0,*55
1512806823.93,4271,4.88,71878.3,-11.11,-13.07,-12.93,0,*5C
1512806825.14,4272,4.88,71876.8,-11.11,-13.11,-12.93,0,*58
1512806826.4,4273,4.81,71872.5,-11.13,-13.01,-12.93,0,*5A
1512806827.64,4274,4.81,71876.3,-11.13,-12.97,-12.97,0,*57
1512806828.9,4275,4.88,71876.8,-11.13,-13.01,-12.97,0,*58
1512806830.11,4276,4.81,71876.3,-11.11,-12.97,-12.97,0,*57
1512806831.32,4277,4.81,71876.3,-11.11,-13.07,-12.93,0,*5A
1512806832.53,4278,4.88,71880.0,-11.11,-12.97,-12.93,0,*5D
1512806833.74,4279,4.88,71880.8,-11.11,-12.97,-12.93,0,*5C
1512806834.95,4280,4.81,71878.5,-11.11,-12.93,-12.89,0,*55
1512806836.16,4281,4.81,71876.3,-11.11,-12.97,-12.89,0,*50
1512806837.37,4282,4.81,71876.0,-11.11,-13.07,-12.93,0,*50
1512806838.58,4283,4.88,71878.3,-11.11,-12.97,-12.93,0,*59
1512806839.85,4284,4.88,71880.0,-11.13,-13.01,-12.93,0,*52
1512806841.08,4285,4.81,71878.5,-11.11,-12.93,-12.79,0,*5F
1512806842.29,4286,4.88,71878.5,-11.11,-12.93,-12.89,0,*53
1512806843.5,4287,4.88,71880.8,-11.11,-12.97,-12.89,0,*56
1512806844.72,4288,4.81,71878.3,-11.11,-12.97,-12.89,0,*59
1512806845.93,4289,4.88,71880.8,-11.11,-12.97,-12.89,0,*58
1512806847.14,4290,4.81,71876.8,-11.11,-12.93,-12.89,0,*54
1512806848.34,4291,4.81,71878.3,-11.11,-13.11,-13.07,0,*59
1512806849.55,4292,4.88,71876.5,-11.11,-12.97,-12.89,0,*52
1512806850.81,4293,4.88,71876.8,-11.09,-12.93,-12.79,0,*51
1512806852.07,4294,4.81,71878.5,-11.09,-12.93,-12.79,0,*56
1512806853.3,4295,4.88,71876.8,-11.09,-12.97,-12.89,0,*5C
1512806854.53,4296,4.88,71878.5,-11.09,-12.93,-12.93,0,*50
1512806855.76,4297,4.88,71880.5,-11.09,-12.97,-12.89,0,*5E
1512806856.99,4298,4.88,71880.5,-11.09,-12.97,-12.93,0,*5A
1512806858.2,4299,4.88,71880.5,-11.11,-13.11,-12.97,0,*59
1512806859.41,4300,4.81,71876.3,-11.11,-12.97,-12.93,0,*53
1512806860.62,4301,4.88,71880.0,-11.11,-12.93,-12.93,0,*56
1512806861.83,4302,4.81,71876.8,-11.11,-12.97,-12.93,0,*51
1512806863.04,4303,4.88,71880.3,-11.11,-13.07,-12.93,0,*58
1512806864.27,4304,4.81,71878.3,-11.09,-12.93,-12.93,0,*5A
1512806865.5,4305,4.81,71876.3,-11.09,-12.97,-12.93,0,*5F
1512806866.76,4306,4.88,71880.0,-11.09,-12.89,-12.79,0,*57
1512806868.02,4307,4.88,71882.8,-11.09,-12.89,-12.79,0,*56
1512806869.25,4308,4.88,71882.5,-11.09,-12.97,-12.89,0,*59
1512806870.5,4309,4.81,71878.5,-11.09,-12.97,-12.79,0,*57
1512806871.74,4310,4.88,71886.8,-11.09,-12.97,-12.89,0,*50
1512806872.97,4311,4.88,71880.0,-11.09,-12.97,-12.93,0,*5A
1512806874.2,4312,4.88,71880.0,-11.09,-12.97,-12.93,0,*59
1512806875.43,4313,4.88,71880.0,-11.09,-12.93,-12.89,0,*57
1512806876.69,4314,4.88,71882.3,-11.09,-12.89,-12.79,0,*54
1512806877.92,4315,4.81,71880.3,-11.09,-12.93,-12.89,0,*51
1512806879.15,4316,4.81,71878.5,-11.09,-12.93,-12.93,0,*59
1512806880.37,4317,4.88,71882.3,-11.05,-12.93,-12.93,0,*54
1512806881.62,4318,4.88,71882.5,-11.09,-12.93,-12.79,0,*53
1512806882.88,4319,4.88,71880.5,-11.05,-12.83,-12.83,0,*5A
1512806884.1,4320,4.88,71882.3,-11.05,-12.89,-12.89,0,*50
1512806885.33,4321,4.88,71882.5,-11.05,-12.89,-12.83,0,*5B
1512806886.56,4322,4.81,71882.8,-11.09,-12.93,-12.89,0,*55
1512806887.8,4323,4.81,71880.5,-11.09,-12.93,-12.89,0,*54
1512806889.03,4324,4.88,71880.8,-11.09,-12.97,-12.93,0,*5C
1512806890.24,4325,4.81,71878.3,-11.05,-12.93,-12.89,0,*5E
1512806891.47,4326,4.88,71880.5,-11.09,-12.97,-12.93,0,*5E
1512806892.71,4327,4.88,71882.3,-11.09,-12.93,-12.89,0,*50
1512806893.94,4328,4.88,71880.0,-11.09,-12.93,-12.89,0,*5F
1512806895.2,4329,4.81,71880.0,-11.05,-12.83,-12.83,0,*59
1512806896.41,4330,4.88,71880.3,-11.05,-12.89,-12.89,0,*51
1512806897.64,4331,4.81,71880.0,-11.09,-12.93,-12.89,0,*57
1512806898.9,4332,4.81,71882.0,-11.05,-12.83,-12.83,0,*53
1512806900.16,4333,4.81,71882.8,-11.09,-12.79,-12.89,0,*51
1512806901.4,4334,4.81,71882.3,-11.05,-12.89,-12.75,0,*56
1512806902.68,4335,4.88,71882.8,-11.09,-12.79,-12.79,0,*58